Location: *
(44.1392°N, 4.8079°E)
Time: 07:44:12
(UTC+00:00)

Cosmos 2221 - Pass Details

Date: 21 June 2021
Orbit: 591 x 616 km, 82.5° (Epoch: 02 August)

Event Time Altitude Azimuth Distance (km) Brightness Sun altitude
Rises 00:33:08 0° 354° (N) 2,859 7.3 -21.4°
Reaches altitude 10° 00:35:23 10° 358° (N) 1,948 6.2 -21.3°
Maximum altitude 00:39:39 61° 79° (E) 682 2.8 -21.2°
Enters shadow 00:40:45 44° 136° (SE) 829 2.9 -21.1°
